Showing default

QIANFAN-49, 62250

Orbit data source: Space-Track

QIANFAN-49, 62250 is a Chinese payload satellite in LEO that was launched on Thu, 05 Dec 2024 UTC via a CHANG ZHENG 6A launch vehicle from the Taiyaun Space Center, China (TSC). Payload-class satellites include a variety of spacecraft equipped with specific instruments for various scientific and technological missions. These include communications satellites like Starlink; space stations such as the ISS; scientific satellites like the Hubble; Earth observation satellites from companies like Planet Labs, Umbra, and HawkEye 360; GPS; miniature CubeSats for education and research; and military/defense satellites.

Loading next visibility...
Identifier
62250, 2024-232P
Orbit
LEO
Country
Flag of CNCN / PRC
Related business
Manufacturer
SECM
Mission
Operational Commercial Communications
Bus & Motor
QIANFAN, Unknown motor
Mass
267 kg wet, ~267 kg dry
Launch date (UTC)
2024-12-05 (10 months ago)
Launch vehicle
CHANG ZHENG 6A
Launch site
Taiyaun Space Center, China (TSC)
Object type
Payload
Rocket body
Debris
Shape & HBR
Box + 1 Pan, 5.0 m
Radar Cross Section
13.200 m², Large (>1 m²)

Expand to show TLE details & history
Last TLE update: 15 hours ago

TLE from 15 hours ago
0 QIANFAN-49
1 62250U 24232P   25287.95897948  .00000162  00000-0  23287-3 0  9995
2 62250  89.0020  47.1533 0014041  12.4170 347.7324 13.50978780 59905
Epoch: 2025-10-14T23:00Z
TLE epoch observation values (Epoch: 2025-10-14T23:00:55.827Z)
Latitude
-0.00004°
Longitude
38.18076°
Altitude
1,061.394 km
Speed
7.326 km/s
True Right ascension
03h 08m 36s
True Declination
0° 00' 00"
Sunlit
Object was in full shadow at epoch
Visualization orbit readout
Latitude
Unknown
Longitude
Unknown
Altitude
Unknown
Speed
Unknown
Apparent Right ascension
Unknown
Apparent Declination
Unknown
Sunlit
N/A
Visualization observer readout
Local Sidereal Time
09:05:30
Azimuth
Unknown
Elevation
Unknown
Doppler factor
Unknown
Orbital elements
Apogee altitude
1,076.163 km
Perigee altitude
1,055.259 km
Semi-major axis
7,443.848 km
Eccentricity
0.0014
Inclination
89.002°
RAAN
47.1533°
Arg. of periapsis
12.417°
True anomaly
347.69815°
Mean anomaly
347.7324°
Eccentric anomaly
347.71528°
Mean motion
3.37946 °/min
Orbital period
106.53 mins
BSTAR
0.00023287
Loading maneuver chart data...
Computing Atmospheric mass density...
Loading historical data...
Loading historical data...
Loading historical data...
Loading historical data...
Loading historical data...
Loading historical data...
Loading historical data...

Documentation

Showing up to 5 results
|